JE4YKI-13 Weather Reports


time (UTC)temp
C
wind
direction
speed
KPH
gust
KPH
rain 1hr
cm
rain 24hr
cm
rain mn
cm
humidity
%
barometer
mb
20260509101433 17 293 3.2 0.0 0.00 0.00 0.00 56 1016.4
20260509100430 17 278 0.0 0.0 0.00 0.00 0.00 54 1016.3
20260509095429 18 271 0.0 0.0 0.00 0.00 0.00 51 1016.3
20260509094429 18 331 0.0 0.0 0.00 0.00 0.00 49 1016.1
20260509093428 19 281 0.0 0.0 0.00 0.00 0.00 47 1016.0
20260509091428 20 285 0.0 0.0 0.00 0.00 0.00 41 1015.8
20260509090428 21 124 1.6 0.0 0.00 0.00 0.00 39 1015.7
20260509085427 21 218 3.2 0.0 0.00 0.00 0.00 38 1015.6
20260509084427 21 219 3.2 0.0 0.00 0.00 0.00 37 1015.5
20260509083428 21 163 12.9 0.0 0.00 0.00 0.00 36 1015.4
20260509082426 21 187 11.3 0.0 0.00 0.00 0.00 35 1015.3
20260509081426 22 240 4.8 0.0 0.00 0.00 0.00 34 1015.2
20260509080425 22 240 4.8 0.0 0.00 0.00 0.00 34 1015.1
20260509075425 22 198 3.2 0.0 0.00 0.00 0.00 33 1015.1
20260509074425 22 113 3.2 0.0 0.00 0.00 0.00 33 1015.0
20260509073424 22 224 8.0 0.0 0.00 0.00 0.00 33 1015.0
20260509072424 22 210 4.8 0.0 0.00 0.00 0.00 34 1015.1
20260509071422 22 293 4.8 0.0 0.00 0.00 0.00 35 1015.1
20260509070421 22 203 9.7 0.0 0.00 0.00 0.00 35 1015.1
20260509065422 22 241 4.8 0.0 0.00 0.00 0.00 35 1015.1
20260509063419 22 271 6.4 0.0 0.00 0.00 0.00 33 1015.5
20260509062419 22 141 4.8 0.0 0.00 0.00 0.00 33 1015.5
20260509061419 22 184 9.7 0.0 0.00 0.00 0.00 34 1015.7
20260509060416 22 159 3.2 0.0 0.00 0.00 0.00 35 1015.6
20260509055414 22 148 4.8 0.0 0.00 0.00 0.00 36 1015.8
20260509054414 22 279 8.0 0.0 0.00 0.00 0.00 35 1015.7
20260509053414 23 152 8.0 0.0 0.00 0.00 0.00 34 1015.7
20260509052412 23 224 9.7 0.0 0.00 0.00 0.00 31 1015.7
20260509051410 23 238 6.4 0.0 0.00 0.00 0.00 32 1015.8
20260509044408 23 116 6.4 0.0 0.00 0.00 0.00 31 1016.1
20260509043408 22 262 3.2 0.0 0.00 0.00 0.00 31 1016.2
20260509042407 22 220 0.0 0.0 0.00 0.00 0.00 33 1016.4
20260509041407 22 135 1.6 0.0 0.00 0.00 0.00 35 1016.5
20260509040406 22 167 0.0 0.0 0.00 0.00 0.00 35 1016.6
20260509035406 22 263 0.0 0.0 0.00 0.00 0.00 37 1016.6
20260509034405 22 154 0.0 0.0 0.00 0.00 0.00 37 1016.8
20260509033406 22 82 0.0 0.0 0.00 0.00 0.00 36 1017.0
20260509032405 22 210 0.0 0.0 0.00 0.00 0.00 35 1017.0
20260509031404 21 170 0.0 0.0 0.00 0.00 0.00 32 1017.1
20260509030404 21 70 0.0 0.0 0.00 0.00 0.00 33 1017.2
20260509025404 21 140 0.0 0.0 0.00 0.00 0.00 32 1017.4
20260509024405 21 128 0.0 0.0 0.00 0.00 0.00 32 1017.4
20260509023403 21 193 0.0 0.0 0.00 0.00 0.00 32 1017.5
20260509022403 21 148 0.0 0.0 0.00 0.00 0.00 33 1017.7
20260509021402 20 120 0.0 0.0 0.00 0.00 0.00 34 1017.7
20260509020402 20 142 0.0 0.0 0.00 0.00 0.00 37 1018.0
20260509015401 20 226 4.8 0.0 0.00 0.00 0.00 37 1018.1
20260509014402 20 155 0.0 0.0 0.00 0.00 0.00 41 1018.2
20260509013401 19 40 1.6 0.0 0.00 0.00 0.00 41 1018.2
20260509012400 19 264 0.0 0.0 0.00 0.00 0.00 42 1018.2
20260509011401 18 139 0.0 0.0 0.00 0.00 0.00 44 1018.4
20260509010400 18 75 0.0 0.0 0.00 0.00 0.00 45 1018.5
20260509005400 18 113 0.0 0.0 0.00 0.00 0.00 46 1018.4
20260509004357 18 74 0.0 0.0 0.00 0.00 0.00 46 1018.3
20260509003355 17 119 0.0 0.0 0.00 0.00 0.00 49 1018.4
20260509002353 17 122 0.0 0.0 0.00 0.00 0.00 49 1018.5
20260509001353 17 104 0.0 0.0 0.00 0.00 0.00 49 1018.5
20260509000355 17 135 0.0 0.0 0.00 0.00 0.00 51 1018.6
20260508235352 17 53 0.0 0.0 0.00 0.00 0.00 51 1018.6
20260508234351 17 118 0.0 0.0 0.00 0.00 0.00 52 1018.6
20260508233351 17 82 0.0 0.0 0.00 0.00 0.00 52 1018.7
20260508232351 16 124 0.0 0.0 0.00 0.00 0.00 51 1018.7
20260508230347 16 358 0.0 0.0 0.00 0.00 0.00 50 1018.7
20260508225347 16 248 0.0 0.0 0.00 0.00 0.00 49 1018.7
20260508223347 15 258 0.0 0.0 0.00 0.00 0.00 52 1018.7
20260508222346 15 236 0.0 0.0 0.00 0.00 0.00 57 1018.5
20260508221345 15 255 0.0 0.0 0.00 0.00 0.00 59 1018.5
20260508220346 13 248 0.0 0.0 0.00 0.00 0.00 63 1018.5
20260508215345 14 76 0.0 0.0 0.00 0.00 0.00 64 1018.3
20260508214344 13 345 0.0 0.0 0.00 0.00 0.00 65 1018.2
20260508213344 12 274 0.0 0.0 0.00 0.00 0.00 66 1018.0
20260508212344 12 274 0.0 0.0 0.00 0.00 0.00 70 1017.9
20260508211343 11 275 0.0 0.0 0.00 0.00 0.00 73 1017.8
20260508210343 11 284 0.0 0.0 0.00 0.00 0.00 75 1017.7
20260508205343 10 283 0.0 0.0 0.00 0.00 0.00 77 1017.6
20260508204342 10 286 3.2 0.0 0.00 0.00 0.00 78 1017.5
20260508203340 10 289 0.0 0.0 0.00 0.00 0.00 78 1017.4
20260508202339 10 278 0.0 0.0 0.00 0.00 0.00 78 1017.4
20260508201339 10 281 0.0 0.0 0.00 0.00 0.00 79 1017.3
20260508200338 10 278 0.0 0.0 0.00 0.00 0.00 78 1017.2
20260508195338 10 273 0.0 0.0 0.00 0.00 0.00 79 1017.1
20260508194337 10 288 0.0 0.0 0.00 0.00 0.00 78 1017.0
20260508193337 10 283 0.0 0.0 0.00 0.00 0.00 78 1016.9
20260508192337 11 274 0.0 0.0 0.00 0.00 0.00 78 1016.7
20260508191335 11 290 0.0 0.0 0.00 0.00 0.00 79 1016.6
20260508190335 11 275 0.0 0.0 0.00 0.00 0.00 78 1016.5
20260508185334 11 275 0.0 0.0 0.00 0.00 0.00 78 1016.4
20260508184334 11 285 1.6 0.0 0.00 0.00 0.00 77 1016.2
20260508183333 11 285 1.6 0.0 0.00 0.00 0.00 77 1016.1
20260508182333 11 276 0.0 0.0 0.00 0.00 0.00 76 1016.1
20260508181333 11 280 0.0 0.0 0.00 0.00 0.00 76 1015.9
20260508180332 11 304 0.0 0.0 0.00 0.00 0.00 74 1015.8
20260508175332 11 304 0.0 0.0 0.00 0.00 0.00 74 1015.8
20260508174332 11 288 1.6 0.0 0.00 0.00 0.00 74 1015.7
20260508173332 12 346 0.0 0.0 0.00 0.00 0.00 73 1015.7
20260508172331 12 309 0.0 0.0 0.00 0.00 0.00 72 1015.7
20260508171330 12 303 3.2 0.0 0.00 0.00 0.00 71 1015.7
20260508170330 12 280 0.0 0.0 0.00 0.00 0.00 69 1015.7
20260508165330 13 290 0.0 0.0 0.00 0.00 0.00 68 1015.7
20260508164329 13 297 0.0 0.0 0.00 0.00 0.00 68 1015.6
20260508163330 13 355 1.6 0.0 0.00 0.00 0.00 69 1015.7
20260508162329 13 309 1.6 0.0 0.00 0.00 0.00 67 1015.6
20260508161328 13 286 0.0 0.0 0.00 0.00 0.00 65 1015.6
20260508160328 12 304 0.0 0.0 0.00 0.00 0.00 64 1015.5
20260508155328 12 345 0.0 0.0 0.00 0.00 0.00 61 1015.5
20260508154327 12 282 0.0 0.0 0.00 0.00 0.00 60 1015.3
20260508153327 12 276 0.0 0.0 0.00 0.00 0.00 58 1015.2
20260508152327 12 283 3.2 0.0 0.00 0.00 0.00 59 1015.2
20260508151326 12 297 0.0 0.0 0.00 0.00 0.00 60 1015.0
20260508150326 12 284 0.0 0.0 0.00 0.00 0.00 61 1014.9
20260508145326 12 268 0.0 0.0 0.00 0.00 0.00 61 1014.8
20260508144325 12 269 0.0 0.0 0.00 0.00 0.00 61 1014.7
20260508143325 12 286 0.0 0.0 0.00 0.00 0.00 58 1014.7
20260508142325 13 304 0.0 0.0 0.00 0.00 0.00 55 1014.4
20260508141324 12 290 0.0 0.0 0.00 0.00 0.00 57 1014.3
20260508140324 12 302 0.0 0.0 0.00 0.00 0.00 58 1014.4
20260508135323 12 311 0.0 0.0 0.00 0.00 0.00 59 1014.4
20260508134323 13 284 0.0 0.0 0.00 0.00 0.00 58 1014.4
20260508133323 13 276 0.0 0.0 0.00 0.00 0.00 58 1014.4
20260508132322 13 284 0.0 0.0 0.00 0.00 0.00 56 1014.3
20260508131322 13 278 0.0 0.0 0.00 0.00 0.00 55 1014.4
20260508130321 13 284 0.0 0.0 0.00 0.00 0.00 54 1014.3
20260508125322 13 300 0.0 0.0 0.00 0.00 0.00 54 1014.2
20260508124412 13 276 0.0 0.0 0.00 0.00 0.00 57 1014.1
20260508124321 13 276 0.0 0.0 0.00 0.00 0.00 57 1014.1
20260508123338 13 297 0.0 0.0 0.00 0.00 0.00 56 1014.0
20260508122320 13 297 0.0 0.0 0.00 0.00 0.00 55 1013.8
20260508121320 13 278 0.0 0.0 0.00 0.00 0.00 56 1013.8
20260508120319 13 309 1.6 0.0 0.00 0.00 0.00 56 1013.6
20260508115319 13 295 1.6 0.0 0.00 0.00 0.00 56 1013.5
20260508114319 13 280 3.2 0.0 0.00 0.00 0.00 58 1013.4
20260508113318 13 272 0.0 0.0 0.00 0.00 0.00 57 1013.2
20260508112315 13 278 0.0 0.0 0.00 0.00 0.00 56 1013.0
20260508111315 13 258 0.0 0.0 0.00 0.00 0.00 57 1012.7
20260508105314 14 286 1.6 0.0 0.00 0.00 0.00 56 1012.4
20260508104311 15 288 0.0 0.0 0.00 0.00 0.00 54 1012.2
20260508103311 15 290 0.0 0.0 0.00 0.00 0.00 52 1012.0